Weather History for York, PA

Change the Weather History Date:

Saturday, January 19, 2013

  Actual Average Record
Temperature  
Mean Temperature 42 °F -  
Max Temperature 53 °F 0 °F 53 °F (2013)
Min Temperature 30 °F - 3 °F (2009)
Degree Days  
Heating Degree Days 24    
Moisture  
Dew Point 22 °F    
Average Humidity 49    
Maximum Humidity 67    
Minimum Humidity 29    
Precipitation  
Precipitation 0.00 in - - ()
Sea Level Pressure  
Sea Level Pressure 30.18 in    
Wind  
Wind Speed 8 mph (SSW)    
Max Wind Speed 13 mph    
Max Gust Speed 22 mph    
Visibility 10 miles    
Events      
Averages and records for this station are not official NWS values.
T = Trace of Precipitation, MM = Missing Value Source: NWS Daily Summary

Daily Weather History Graph

Daily Weather History Graph

Search for Another Location

Airport:

Trip Planner

Search our weather history database for the weather conditions in past years. The results will help you decide how hot, cold, wet, or windy it might be!

Date:

Astronomy

Jan. 19, 2013 Rise Set
Actual Time 7:25 AM EST 5:11 PM EST
Civil Twilight 6:55 AM EST 5:41 PM EST
Nautical Twilight 6:22 AM EST 6:14 PM EST
Astronomical Twilight 5:50 AM EST 6:46 PM EST
Moon 11:36 AM EST (1/19) 12:57 AM EST (1/19)
Length of Visible Light 10h 45m
Length of Day
9h 46m
First Quarter, 57% of the Moon is Illuminated
Jan 19
First Quarter
Jan 26
Full
Feb 3
Last Quarter
Feb 10
New
Feb 17
First Quarter

Hourly Weather History & Observations

Time (EST) Temp. Windchill Dew Point Humidity Pressure Visibility Wind Dir Wind Speed Gust Speed Precip Events Conditions
12:53 AM 30.0 °F 23.2 °F 16.0 °F 56% 30.38 in 10.0 mi SSW 6.9 mph - N/A   Clear
1:53 AM 30.0 °F 25.2 °F 18.0 °F 61% 30.36 in 10.0 mi SSW 4.6 mph - N/A   Clear
2:53 AM 30.0 °F 24.1 °F 19.9 °F 66% 30.35 in 10.0 mi SSW 5.8 mph - N/A   Clear
3:53 AM 30.0 °F 26.5 °F 19.9 °F 66% 30.33 in 10.0 mi SSW 3.5 mph - N/A   Mostly Cloudy
4:53 AM 30.9 °F 25.2 °F 21.0 °F 67% 30.30 in 10.0 mi SSW 5.8 mph - N/A   Overcast
5:53 AM 32.0 °F 25.6 °F 19.9 °F 61% 30.30 in 10.0 mi SSW 6.9 mph - N/A   Scattered Clouds
6:53 AM 32.0 °F 23.0 °F 19.9 °F 61% 30.28 in 10.0 mi SSW 11.5 mph 19.6 mph N/A   Mostly Cloudy
7:53 AM 32.0 °F 28.7 °F 19.9 °F 61% 30.29 in 10.0 mi SW 3.5 mph - N/A   Clear
8:53 AM 34.0 °F 25.5 °F 21.0 °F 59% 30.29 in 10.0 mi SSW 11.5 mph 18.4 mph N/A   Clear
9:53 AM 37.9 °F 31.5 °F 21.0 °F 51% 30.30 in 10.0 mi SW 9.2 mph 17.3 mph N/A   Clear
10:53 AM 41.0 °F 35.2 °F 23.0 °F 49% 30.26 in 10.0 mi SSW 9.2 mph - N/A   Clear
11:53 AM 45.0 °F 39.7 °F 23.0 °F 42% 30.20 in 10.0 mi SSW 10.4 mph 19.6 mph N/A   Clear
12:53 PM 48.9 °F - 21.9 °F 35% 30.15 in 10.0 mi SSW 12.7 mph 19.6 mph N/A   Clear
1:53 PM 51.1 °F - 23.0 °F 33% 30.12 in 10.0 mi SSW 10.4 mph 19.6 mph N/A   Clear
2:53 PM 52.0 °F - 21.0 °F 30% 30.09 in 10.0 mi SW 10.4 mph 21.9 mph N/A   Clear
3:53 PM 53.1 °F - 21.0 °F 29% 30.06 in 10.0 mi SSW 6.9 mph 19.6 mph N/A   Clear
4:53 PM 51.1 °F - 21.9 °F 32% 30.05 in 10.0 mi South 10.4 mph - N/A   Clear
5:53 PM 48.0 °F - 24.1 °F 39% 30.04 in 10.0 mi South 8.1 mph - N/A   Clear
6:53 PM 46.0 °F 41.0 °F 25.0 °F 44% 30.03 in 10.0 mi South 10.4 mph - N/A   Clear
7:53 PM 46.0 °F 40.6 °F 24.1 °F 42% 30.01 in 10.0 mi South 11.5 mph 18.4 mph N/A   Clear
8:53 PM 45.0 °F 40.1 °F 25.0 °F 46% 29.99 in 10.0 mi South 9.2 mph 17.3 mph N/A   Clear
9:53 PM 44.1 °F 38.1 °F 26.1 °F 49% 29.97 in 10.0 mi SSW 11.5 mph 19.6 mph N/A   Clear
10:53 PM 43.0 °F 36.8 °F 26.1 °F 51% 29.94 in 10.0 mi SSW 11.5 mph 18.4 mph N/A   Clear